FFT2630 KSTL-KMCO

Flight info

Callsign FFT2630
Flight time 1h 55m
Altitude 35000
Route DRUSE5 BNA THRSR ZJAYX GRNCH5
Aircraft A21N/M-SDE2E3FGHIRWXY/LB1

Departure

Time 2026-04-24 20:28
Airport St. Louis Lambert International Airport (KSTL)

Arrival

Time 2026-04-24 22:23
Airport Orlando International Airport (KMCO)
Time Latitude Longitude Altitude Speed Heading
2026-04-24 19:49 38.74154 -90.36210 581 ft 0 kts 32°
2026-04-24 20:17 38.74153 -90.36210 578 ft 2 kts 32°
2026-04-24 20:18 38.74142 -90.36219 575 ft 3 kts 41°
2026-04-24 20:18 38.74124 -90.36244 578 ft 4 kts 54°
2026-04-24 20:18 38.74113 -90.36265 574 ft 1 kts 57°
2026-04-24 20:18 38.74111 -90.36268 574 ft 0 kts 57°
2026-04-24 20:22 38.74112 -90.36266 574 ft 2 kts 62°
2026-04-24 20:22 38.74098 -90.36234 575 ft 7 kts 124°
2026-04-24 20:22 38.74062 -90.36163 574 ft 12 kts 122°
2026-04-24 20:23 38.74007 -90.36051 578 ft 17 kts 122°
2026-04-24 20:23 38.73964 -90.35925 581 ft 14 kts 77°
2026-04-24 20:23 38.74037 -90.35849 582 ft 15 kts 29°
2026-04-24 20:23 38.74109 -90.35777 580 ft 16 kts 76°
2026-04-24 20:24 38.74058 -90.35646 580 ft 17 kts 125°
2026-04-24 20:24 38.73990 -90.35509 583 ft 19 kts 122°
2026-04-24 20:24 38.73917 -90.35359 586 ft 17 kts 122°
2026-04-24 20:24 38.73850 -90.35222 592 ft 19 kts 123°
2026-04-24 20:25 38.73774 -90.35074 596 ft 21 kts 122°
2026-04-24 20:25 38.73701 -90.34923 602 ft 19 kts 122°
2026-04-24 20:25 38.73651 -90.34808 603 ft 12 kts 98°
2026-04-24 20:25 38.73661 -90.34763 603 ft 5 kts 55°
2026-04-24 20:26 38.73687 -90.34732 603 ft 4 kts 34°
2026-04-24 20:26 38.73696 -90.34725 603 ft 2 kts 32°
2026-04-24 20:26 38.73712 -90.34712 603 ft 4 kts 31°
2026-04-24 20:26 38.73745 -90.34686 602 ft 7 kts 32°
2026-04-24 20:27 38.73797 -90.34687 603 ft 10 kts 307°
2026-04-24 20:27 38.73860 -90.34806 600 ft 38 kts 302°
2026-04-24 20:27 38.74132 -90.35367 588 ft 107 kts 302°
2026-04-24 20:27 38.74626 -90.36366 572 ft 156 kts 302°
2026-04-24 20:28 38.75220 -90.37582 1013 ft 157 kts 302°
2026-04-24 20:28 38.75766 -90.38786 1629 ft 157 kts 297°
2026-04-24 20:28 38.76345 -90.40047 2035 ft 173 kts 301°
2026-04-24 20:28 38.77053 -90.41379 2594 ft 190 kts 302°
2026-04-24 20:29 38.77542 -90.42385 2863 ft 214 kts 298°
2026-04-24 20:29 38.78145 -90.45048 3540 ft 250 kts 270°
2026-04-24 20:29 38.77745 -90.47224 4427 ft 261 kts 245°
2026-04-24 20:29 38.76745 -90.49198 5414 ft 268 kts 236°
2026-04-24 20:30 38.75592 -90.51098 6399 ft 273 kts 229°
2026-04-24 20:30 38.74046 -90.52547 7284 ft 280 kts 207°
2026-04-24 20:30 38.72200 -90.53409 8125 ft 284 kts 200°
2026-04-24 20:30 38.70289 -90.54108 8917 ft 290 kts 192°
2026-04-24 20:31 38.68254 -90.54141 9661 ft 298 kts 169°
2026-04-24 20:31 38.66340 -90.53041 10209 ft 311 kts 147°
2026-04-24 20:31 38.64555 -90.51330 10535 ft 329 kts 144°
2026-04-24 20:31 38.62687 -90.49502 10843 ft 347 kts 145°
2026-04-24 20:32 38.60710 -90.47640 11336 ft 357 kts 146°
2026-04-24 20:32 38.58679 -90.45779 12016 ft 361 kts 147°
2026-04-24 20:32 38.56611 -90.43912 12745 ft 365 kts 148°
2026-04-24 20:32 38.54617 -90.41947 13465 ft 371 kts 139°
2026-04-24 20:33 38.53051 -90.39285 14105 ft 381 kts 119°
2026-04-24 20:33 38.52047 -90.36128 14741 ft 388 kts 111°
2026-04-24 20:33 38.51157 -90.32849 15357 ft 393 kts 110°
2026-04-24 20:33 38.50248 -90.29543 15974 ft 397 kts 111°
2026-04-24 20:34 38.49303 -90.26208 16584 ft 401 kts 111°
2026-04-24 20:34 38.48332 -90.22852 17180 ft 406 kts 112°
2026-04-24 20:34 38.47340 -90.19459 17793 ft 411 kts 112°
2026-04-24 20:34 38.46333 -90.16027 18368 ft 415 kts 112°
2026-04-24 20:35 38.45319 -90.12555 18892 ft 419 kts 112°
2026-04-24 20:35 38.44299 -90.09059 19411 ft 422 kts 112°
2026-04-24 20:35 38.43272 -90.05538 19934 ft 425 kts 112°
2026-04-24 20:35 38.42230 -90.01988 20450 ft 429 kts 113°
2026-04-24 20:36 38.41178 -89.98415 20959 ft 432 kts 113°
2026-04-24 20:36 38.40127 -89.94857 21462 ft 435 kts 114°
2026-04-24 20:36 38.39057 -89.91235 21958 ft 438 kts 114°
2026-04-24 20:36 38.37975 -89.87581 22474 ft 441 kts 114°
2026-04-24 20:37 38.36888 -89.83909 22971 ft 445 kts 114°
2026-04-24 20:37 38.35792 -89.80210 23459 ft 448 kts 114°
2026-04-24 20:37 38.34685 -89.76487 23893 ft 450 kts 114°
2026-04-24 20:37 38.33550 -89.72769 24314 ft 450 kts 117°
2026-04-24 20:38 38.32026 -89.69307 24715 ft 444 kts 131°
2026-04-24 20:38 38.30063 -89.66281 25147 ft 442 kts 136°
2026-04-24 20:38 38.28007 -89.63366 25574 ft 443 kts 137°
2026-04-24 20:38 38.25968 -89.60486 25985 ft 444 kts 137°
2026-04-24 20:39 38.23906 -89.57548 26397 ft 446 kts 137°
2026-04-24 20:39 38.21837 -89.54585 26803 ft 448 kts 137°
2026-04-24 20:39 38.19763 -89.51607 27204 ft 449 kts 137°
2026-04-24 20:39 38.17686 -89.48625 27559 ft 451 kts 136°
2026-04-24 20:40 38.15596 -89.45627 27897 ft 454 kts 136°
2026-04-24 20:40 38.13492 -89.42614 28267 ft 455 kts 137°
2026-04-24 20:40 38.11385 -89.39602 28635 ft 457 kts 137°
2026-04-24 20:40 38.09298 -89.36617 28993 ft 459 kts 137°
2026-04-24 20:41 38.07174 -89.33578 29351 ft 460 kts 137°
2026-04-24 20:41 38.05045 -89.30540 29698 ft 462 kts 137°
2026-04-24 20:41 38.02904 -89.27490 30004 ft 463 kts 137°
2026-04-24 20:41 38.00764 -89.24438 30333 ft 463 kts 137°
2026-04-24 20:42 37.98627 -89.21397 30652 ft 462 kts 137°
2026-04-24 20:42 37.96487 -89.18354 31003 ft 461 kts 137°
2026-04-24 20:42 37.94357 -89.15326 31339 ft 460 kts 137°
2026-04-24 20:42 37.92220 -89.12292 31665 ft 459 kts 137°
2026-04-24 20:43 37.90091 -89.09280 31988 ft 458 kts 137°
2026-04-24 20:43 37.87968 -89.06275 32302 ft 457 kts 137°
2026-04-24 20:43 37.85853 -89.03280 32633 ft 456 kts 137°
2026-04-24 20:43 37.83740 -89.00288 32935 ft 455 kts 137°
2026-04-24 20:44 37.81634 -88.97311 33226 ft 454 kts 137°
2026-04-24 20:44 37.79554 -88.94373 33502 ft 453 kts 138°
2026-04-24 20:44 37.77446 -88.91402 33775 ft 452 kts 138°
2026-04-24 20:44 37.75349 -88.88452 34012 ft 451 kts 138°
2026-04-24 20:45 37.73250 -88.85500 34230 ft 450 kts 138°
2026-04-24 20:45 37.71148 -88.82555 34383 ft 450 kts 137°
2026-04-24 20:45 37.69052 -88.79611 34542 ft 451 kts 137°
2026-04-24 20:45 37.66958 -88.76668 34742 ft 450 kts 137°
2026-04-24 20:46 37.64864 -88.73734 34872 ft 450 kts 137°
2026-04-24 20:46 37.62767 -88.70797 34883 ft 449 kts 137°
2026-04-24 20:46 37.58586 -88.64953 34856 ft 448 kts 137°
2026-04-24 20:47 37.54411 -88.59118 34846 ft 448 kts 137°
2026-04-24 20:47 37.50250 -88.53322 34838 ft 448 kts 137°
2026-04-24 20:48 37.46061 -88.47497 34815 ft 448 kts 137°
2026-04-24 20:48 37.41872 -88.41675 34824 ft 449 kts 137°
2026-04-24 20:49 37.37678 -88.35860 34824 ft 449 kts 137°
2026-04-24 20:49 37.33477 -88.30044 34825 ft 449 kts 137°
2026-04-24 20:50 37.29269 -88.24238 34829 ft 449 kts 137°
2026-04-24 20:50 37.25065 -88.18446 34829 ft 449 kts 137°
2026-04-24 20:51 37.20854 -88.12652 34829 ft 449 kts 136°
2026-04-24 20:51 37.16648 -88.06873 34832 ft 448 kts 135°
2026-04-24 20:52 37.12466 -88.01139 34842 ft 448 kts 135°
2026-04-24 20:52 37.08263 -87.95381 34846 ft 448 kts 135°
2026-04-24 20:53 37.04053 -87.89633 34846 ft 448 kts 136°
2026-04-24 20:53 36.99841 -87.83890 34855 ft 448 kts 136°
2026-04-24 20:54 36.95624 -87.78142 34855 ft 447 kts 135°
2026-04-24 20:54 36.91416 -87.72419 34861 ft 447 kts 136°
2026-04-24 20:55 36.87205 -87.66705 34865 ft 445 kts 135°
2026-04-24 20:55 36.83038 -87.61058 34867 ft 444 kts 135°
2026-04-24 20:56 36.78847 -87.55393 34870 ft 444 kts 135°
2026-04-24 20:56 36.74654 -87.49731 34870 ft 444 kts 135°
2026-04-24 20:57 36.70466 -87.44085 34866 ft 443 kts 135°
2026-04-24 20:57 36.66280 -87.38458 34881 ft 443 kts 134°
2026-04-24 20:58 36.62083 -87.32821 34882 ft 443 kts 135°
2026-04-24 20:58 36.57888 -87.27197 34883 ft 443 kts 134°
2026-04-24 20:59 36.53692 -87.21578 34890 ft 442 kts 135°
2026-04-24 20:59 36.49528 -87.16009 34888 ft 442 kts 134°
2026-04-24 21:00 36.45332 -87.10408 34888 ft 443 kts 134°
2026-04-24 21:00 36.41115 -87.04787 34878 ft 445 kts 134°
2026-04-24 21:01 36.36914 -86.99204 34881 ft 444 kts 134°
2026-04-24 21:01 36.32688 -86.93599 34875 ft 445 kts 134°
2026-04-24 21:02 36.28439 -86.87970 34884 ft 448 kts 134°
2026-04-24 21:02 36.24175 -86.82330 34867 ft 448 kts 134°
2026-04-24 21:03 36.20630 -86.77647 34883 ft 448 kts 133°
2026-04-24 21:03 36.15667 -86.71104 34915 ft 449 kts 133°
2026-04-24 21:04 36.11820 -86.66723 34912 ft 449 kts 142°
2026-04-24 21:04 36.06840 -86.62098 34908 ft 449 kts 143°
2026-04-24 21:05 36.01833 -86.57460 34909 ft 449 kts 143°
2026-04-24 21:05 35.96811 -86.52799 34923 ft 456 kts 142°
2026-04-24 21:06 35.91742 -86.48100 34897 ft 454 kts 143°
2026-04-24 21:06 35.86683 -86.43418 34879 ft 455 kts 142°
2026-04-24 21:07 35.81608 -86.38730 34926 ft 455 kts 143°
2026-04-24 21:07 35.76545 -86.34056 34920 ft 455 kts 143°
2026-04-24 21:08 35.71468 -86.29380 34905 ft 456 kts 143°
2026-04-24 21:08 35.66397 -86.24721 34917 ft 454 kts 143°
2026-04-24 21:09 35.61375 -86.20113 34911 ft 454 kts 143°
2026-04-24 21:09 35.56302 -86.15461 34914 ft 457 kts 142°
2026-04-24 21:10 35.51188 -86.10782 34912 ft 459 kts 142°
2026-04-24 21:10 35.46074 -86.06110 34518 ft 454 kts 142°
2026-04-24 21:11 35.43520 -86.03779 33566 ft 460 kts 142°
2026-04-24 21:11 35.40962 -86.01445 32857 ft 457 kts 142°
2026-04-24 21:11 35.38417 -85.99126 32279 ft 452 kts 142°
2026-04-24 21:11 35.35906 -85.96840 31685 ft 448 kts 142°
2026-04-24 21:12 35.33417 -85.94577 31146 ft 443 kts 142°
2026-04-24 21:12 35.30955 -85.92339 30615 ft 438 kts 142°
2026-04-24 21:12 35.28526 -85.90131 30076 ft 433 kts 142°
2026-04-24 21:12 35.26146 -85.87969 29443 ft 429 kts 143°
2026-04-24 21:13 35.23754 -85.85800 28752 ft 427 kts 143°
2026-04-24 21:13 35.21374 -85.83644 28125 ft 424 kts 143°
2026-04-24 21:13 35.19013 -85.81505 27503 ft 421 kts 143°
2026-04-24 21:13 35.16669 -85.79385 26924 ft 417 kts 143°
2026-04-24 21:14 35.14339 -85.77279 26257 ft 416 kts 143°
2026-04-24 21:14 35.12021 -85.75183 25654 ft 414 kts 143°
2026-04-24 21:14 35.09710 -85.73096 25086 ft 412 kts 143°
2026-04-24 21:14 35.07408 -85.71020 24559 ft 409 kts 143°
2026-04-24 21:15 35.05130 -85.68966 24117 ft 405 kts 144°
2026-04-24 21:15 35.02864 -85.66926 23939 ft 406 kts 144°
2026-04-24 21:15 35.00592 -85.64881 23900 ft 406 kts 144°
2026-04-24 21:15 34.98319 -85.62837 23903 ft 407 kts 144°
2026-04-24 21:16 34.96043 -85.60792 23905 ft 406 kts 144°
2026-04-24 21:16 34.93768 -85.58747 23910 ft 406 kts 144°
2026-04-24 21:16 34.91497 -85.56708 23909 ft 405 kts 144°
2026-04-24 21:16 34.89227 -85.54671 23910 ft 406 kts 144°
2026-04-24 21:17 34.86950 -85.52629 23912 ft 406 kts 144°
2026-04-24 21:17 34.84699 -85.50612 23920 ft 407 kts 144°
2026-04-24 21:17 34.82390 -85.48543 23920 ft 406 kts 144°
2026-04-24 21:17 34.80109 -85.46503 23919 ft 406 kts 144°
2026-04-24 21:18 34.77830 -85.44468 23921 ft 406 kts 144°
2026-04-24 21:18 34.75579 -85.42457 23918 ft 406 kts 144°
2026-04-24 21:18 34.73270 -85.40394 23975 ft 419 kts 144°
2026-04-24 21:18 34.70880 -85.38263 24105 ft 431 kts 144°
2026-04-24 21:19 34.68437 -85.36086 24352 ft 438 kts 144°
2026-04-24 21:19 34.65968 -85.33886 24752 ft 441 kts 144°
2026-04-24 21:19 34.63489 -85.31679 25173 ft 443 kts 143°
2026-04-24 21:19 34.60993 -85.29459 25594 ft 445 kts 143°
2026-04-24 21:20 34.55972 -85.25000 26418 ft 449 kts 143°
2026-04-24 21:20 34.53443 -85.22755 26828 ft 451 kts 143°
2026-04-24 21:20 34.50906 -85.20504 27230 ft 453 kts 143°
2026-04-24 21:21 34.48349 -85.18240 27617 ft 456 kts 143°
2026-04-24 21:21 34.45778 -85.15964 27954 ft 459 kts 143°
2026-04-24 21:21 34.43200 -85.13683 28353 ft 460 kts 143°
2026-04-24 21:21 34.40611 -85.11395 28772 ft 461 kts 143°
2026-04-24 21:22 34.38046 -85.09128 29110 ft 463 kts 143°
2026-04-24 21:22 34.35430 -85.06823 29446 ft 465 kts 143°
2026-04-24 21:22 34.32805 -85.04510 29788 ft 468 kts 143°
2026-04-24 21:22 34.30165 -85.02184 30090 ft 470 kts 143°
2026-04-24 21:23 34.27526 -84.99861 30485 ft 468 kts 143°
2026-04-24 21:23 34.24887 -84.97541 30829 ft 468 kts 143°
2026-04-24 21:23 34.22252 -84.95227 31146 ft 468 kts 143°
2026-04-24 21:23 34.19621 -84.92915 31506 ft 467 kts 143°
2026-04-24 21:24 34.16994 -84.90606 31845 ft 466 kts 143°
2026-04-24 21:24 34.14376 -84.88308 32174 ft 465 kts 143°
2026-04-24 21:24 34.11758 -84.86014 32489 ft 465 kts 143°
2026-04-24 21:24 34.09169 -84.83747 32769 ft 465 kts 143°
2026-04-24 21:25 34.06555 -84.81459 33064 ft 464 kts 143°
2026-04-24 21:25 34.03936 -84.79169 33372 ft 464 kts 143°
2026-04-24 21:25 34.01327 -84.76890 33666 ft 463 kts 142°
2026-04-24 21:25 33.98720 -84.74615 33945 ft 462 kts 142°
2026-04-24 21:26 33.96113 -84.72342 34181 ft 462 kts 142°
2026-04-24 21:26 33.93514 -84.70083 34401 ft 461 kts 143°
2026-04-24 21:26 33.90906 -84.67811 34630 ft 461 kts 143°
2026-04-24 21:26 33.88314 -84.65553 34804 ft 461 kts 143°
2026-04-24 21:27 33.85708 -84.63284 34933 ft 461 kts 143°
2026-04-24 21:27 33.80510 -84.58769 34950 ft 460 kts 143°
2026-04-24 21:28 33.75324 -84.54275 34946 ft 460 kts 143°
2026-04-24 21:28 33.70138 -84.49783 34954 ft 460 kts 143°
2026-04-24 21:29 33.64980 -84.45324 34966 ft 459 kts 143°
2026-04-24 21:29 33.59473 -84.41430 34967 ft 460 kts 153°
2026-04-24 21:30 33.53729 -84.38025 34960 ft 460 kts 153°
2026-04-24 21:30 33.48000 -84.34624 34999 ft 460 kts 153°
2026-04-24 21:31 33.42264 -84.31215 34992 ft 460 kts 153°
2026-04-24 21:31 33.36533 -84.27819 34993 ft 460 kts 153°
2026-04-24 21:32 33.30799 -84.24412 34973 ft 460 kts 153°
2026-04-24 21:32 33.25057 -84.21006 34957 ft 460 kts 153°
2026-04-24 21:33 33.19311 -84.17610 34948 ft 460 kts 153°
2026-04-24 21:33 33.13567 -84.14216 34944 ft 460 kts 153°
2026-04-24 21:34 33.07864 -84.10846 34938 ft 460 kts 153°
2026-04-24 21:34 33.02098 -84.07438 34949 ft 460 kts 153°
2026-04-24 21:35 32.96394 -84.04076 34947 ft 462 kts 154°
2026-04-24 21:35 32.90627 -84.00680 34946 ft 462 kts 154°
2026-04-24 21:36 32.84862 -83.97289 34935 ft 461 kts 154°
2026-04-24 21:36 32.79094 -83.93910 34929 ft 461 kts 154°
2026-04-24 21:37 32.73338 -83.90537 34930 ft 462 kts 154°
2026-04-24 21:37 32.67618 -83.87182 34933 ft 462 kts 154°
2026-04-24 21:38 32.61856 -83.83800 34945 ft 462 kts 154°
2026-04-24 21:38 32.56081 -83.80450 34946 ft 462 kts 154°
2026-04-24 21:39 32.50293 -83.77091 34941 ft 462 kts 154°
2026-04-24 21:39 32.44527 -83.73725 34943 ft 462 kts 154°
2026-04-24 21:40 32.38756 -83.70372 34937 ft 462 kts 154°
2026-04-24 21:40 32.32981 -83.67018 34924 ft 462 kts 154°
2026-04-24 21:41 32.27250 -83.63688 34926 ft 462 kts 154°
2026-04-24 21:41 32.21466 -83.60358 34927 ft 461 kts 154°
2026-04-24 21:42 32.15685 -83.57024 34927 ft 462 kts 155°
2026-04-24 21:42 32.09908 -83.53685 34928 ft 462 kts 155°
2026-04-24 21:43 32.04140 -83.50360 34934 ft 460 kts 155°
2026-04-24 21:43 31.98418 -83.47066 34930 ft 460 kts 155°
2026-04-24 21:44 31.92659 -83.43752 34922 ft 460 kts 155°
2026-04-24 21:44 31.86898 -83.40447 34926 ft 460 kts 155°
2026-04-24 21:45 31.81140 -83.37148 34935 ft 460 kts 155°
2026-04-24 21:45 31.75382 -83.33857 34941 ft 460 kts 155°
2026-04-24 21:46 31.69618 -83.30568 34936 ft 460 kts 155°
2026-04-24 21:46 31.63892 -83.27305 34919 ft 460 kts 155°
2026-04-24 21:47 31.58110 -83.24046 34920 ft 462 kts 156°
2026-04-24 21:47 31.52299 -83.20800 34923 ft 463 kts 156°
2026-04-24 21:48 31.46484 -83.17544 34924 ft 463 kts 156°
2026-04-24 21:48 31.41639 -83.14839 34936 ft 462 kts 156°
2026-04-24 21:49 31.34910 -83.11081 34927 ft 461 kts 156°
2026-04-24 21:49 31.29105 -83.07849 34929 ft 462 kts 156°
2026-04-24 21:50 31.24282 -83.05165 34924 ft 462 kts 156°
2026-04-24 21:50 31.18473 -83.01935 34929 ft 462 kts 156°
2026-04-24 21:51 31.12660 -82.98708 34930 ft 462 kts 156°
2026-04-24 21:51 31.06854 -82.95489 34935 ft 462 kts 156°
2026-04-24 21:52 31.01033 -82.92269 34929 ft 464 kts 156°
2026-04-24 21:52 30.95231 -82.89056 34935 ft 464 kts 156°
2026-04-24 21:53 30.89431 -82.85745 34953 ft 464 kts 151°
2026-04-24 21:53 30.84196 -82.81305 34988 ft 466 kts 143°
2026-04-24 21:54 30.79093 -82.76644 34997 ft 465 kts 143°
2026-04-24 21:54 30.74010 -82.72036 35014 ft 463 kts 143°
2026-04-24 21:55 30.68937 -82.67449 35030 ft 465 kts 143°
2026-04-24 21:55 30.63825 -82.62839 35033 ft 464 kts 144°
2026-04-24 21:56 30.58708 -82.58241 35033 ft 464 kts 143°
2026-04-24 21:56 30.53583 -82.53639 35043 ft 465 kts 144°
2026-04-24 21:57 30.48501 -82.49087 35061 ft 465 kts 144°
2026-04-24 21:57 30.43377 -82.44499 35061 ft 464 kts 144°
2026-04-24 21:58 30.38261 -82.39928 35085 ft 464 kts 144°
2026-04-24 21:58 30.33161 -82.35376 35082 ft 462 kts 144°
2026-04-24 21:59 30.28069 -82.30838 35063 ft 462 kts 144°
2026-04-24 21:59 30.22969 -82.26320 35049 ft 461 kts 146°
2026-04-24 22:00 30.17273 -82.23138 35032 ft 453 kts 168°
2026-04-24 22:00 30.11106 -82.21860 35028 ft 449 kts 174°
2026-04-24 22:01 30.04943 -82.20707 35023 ft 448 kts 173°
2026-04-24 22:01 29.98801 -82.19501 34731 ft 446 kts 173°
2026-04-24 22:01 29.95762 -82.18898 33743 ft 452 kts 173°
2026-04-24 22:02 29.92628 -82.18281 32521 ft 461 kts 173°
2026-04-24 22:02 29.89434 -82.17648 31393 ft 469 kts 172°
2026-04-24 22:02 29.86223 -82.17006 30626 ft 467 kts 172°
2026-04-24 22:02 29.83037 -82.16368 30023 ft 462 kts 172°
2026-04-24 22:03 29.79882 -82.15737 29251 ft 458 kts 172°
2026-04-24 22:03 29.76759 -82.15113 28547 ft 453 kts 172°
2026-04-24 22:03 29.73661 -82.14497 27844 ft 449 kts 172°
2026-04-24 22:03 29.70595 -82.13886 27135 ft 445 kts 172°
2026-04-24 22:04 29.67550 -82.13279 26454 ft 442 kts 172°
2026-04-24 22:04 29.64529 -82.12680 25794 ft 438 kts 172°
2026-04-24 22:04 29.61529 -82.12084 25109 ft 435 kts 172°
2026-04-24 22:04 29.58560 -82.11494 24489 ft 432 kts 172°
2026-04-24 22:05 29.55604 -82.10909 23824 ft 430 kts 173°
2026-04-24 22:05 29.52705 -82.10336 23185 ft 426 kts 173°
2026-04-24 22:05 29.49799 -82.09760 22526 ft 422 kts 173°
2026-04-24 22:05 29.46919 -82.09189 21850 ft 418 kts 172°
2026-04-24 22:06 29.44068 -82.08622 21244 ft 414 kts 173°
2026-04-24 22:06 29.41235 -82.08063 20656 ft 410 kts 173°
2026-04-24 22:06 29.38432 -82.07514 20098 ft 406 kts 173°
2026-04-24 22:06 29.35666 -82.06971 19593 ft 401 kts 173°
2026-04-24 22:07 29.32934 -82.06434 19105 ft 396 kts 173°
2026-04-24 22:07 29.30270 -82.05690 18635 ft 394 kts 160°
2026-04-24 22:07 29.27834 -82.04294 18169 ft 390 kts 152°
2026-04-24 22:07 29.25480 -82.02778 17670 ft 385 kts 152°
2026-04-24 22:08 29.23159 -82.01286 17189 ft 380 kts 152°
2026-04-24 22:08 29.20869 -81.99819 16714 ft 374 kts 152°
2026-04-24 22:08 29.18611 -81.98386 16281 ft 368 kts 152°
2026-04-24 22:08 29.16386 -81.96981 15871 ft 362 kts 152°
2026-04-24 22:09 29.14197 -81.95605 15479 ft 357 kts 152°
2026-04-24 22:09 29.12021 -81.94243 15098 ft 356 kts 153°
2026-04-24 22:09 29.09851 -81.92886 14705 ft 356 kts 152°
2026-04-24 22:09 29.07675 -81.91513 14287 ft 357 kts 150°
2026-04-24 22:10 29.05708 -81.89841 13883 ft 359 kts 138°
2026-04-24 22:10 29.03887 -81.87885 13437 ft 360 kts 137°
2026-04-24 22:10 29.02082 -81.85918 12986 ft 355 kts 137°
2026-04-24 22:10 29.00309 -81.83996 12546 ft 348 kts 137°
2026-04-24 22:11 28.98567 -81.82110 12132 ft 342 kts 136°
2026-04-24 22:11 28.97028 -81.80070 11721 ft 336 kts 128°
2026-04-24 22:11 28.95618 -81.77971 11321 ft 330 kts 127°
2026-04-24 22:11 28.94239 -81.75903 10942 ft 327 kts 128°
2026-04-24 22:12 28.92867 -81.73854 10592 ft 321 kts 128°
2026-04-24 22:12 28.91534 -81.71871 10382 ft 309 kts 128°
2026-04-24 22:12 28.90247 -81.69960 10149 ft 299 kts 128°
2026-04-24 22:12 28.88984 -81.68088 9788 ft 296 kts 128°
2026-04-24 22:13 28.87737 -81.66238 9363 ft 294 kts 128°
2026-04-24 22:13 28.86486 -81.64384 8962 ft 296 kts 128°
2026-04-24 22:13 28.85228 -81.62520 8572 ft 297 kts 128°
2026-04-24 22:13 28.83976 -81.60665 8200 ft 293 kts 128°
2026-04-24 22:14 28.82741 -81.58837 7835 ft 288 kts 128°
2026-04-24 22:14 28.81529 -81.57046 7564 ft 281 kts 128°
2026-04-24 22:14 28.80358 -81.55314 7393 ft 270 kts 128°
2026-04-24 22:14 28.79237 -81.53646 7157 ft 262 kts 126°
2026-04-24 22:15 28.78224 -81.51928 6814 ft 260 kts 123°
2026-04-24 22:15 28.77260 -81.50210 6425 ft 260 kts 123°
2026-04-24 22:15 28.76289 -81.48478 6074 ft 258 kts 123°
2026-04-24 22:15 28.75348 -81.46795 5969 ft 246 kts 123°
2026-04-24 22:16 28.74431 -81.45157 5967 ft 245 kts 123°
2026-04-24 22:16 28.73513 -81.43521 5972 ft 244 kts 122°
2026-04-24 22:16 28.72786 -81.41785 5667 ft 242 kts 109°
2026-04-24 22:16 28.72278 -81.39964 5306 ft 241 kts 107°
2026-04-24 22:17 28.71782 -81.38151 4955 ft 239 kts 108°
2026-04-24 22:17 28.71280 -81.36352 4614 ft 238 kts 108°
2026-04-24 22:17 28.70722 -81.34582 4242 ft 237 kts 118°
2026-04-24 22:17 28.69627 -81.33228 3922 ft 234 kts 152°
2026-04-24 22:18 28.68081 -81.32700 3604 ft 232 kts 174°
2026-04-24 22:18 28.66475 -81.32634 3273 ft 231 kts 181°
2026-04-24 22:18 28.64874 -81.32706 3006 ft 230 kts 182°
2026-04-24 22:18 28.63288 -81.32776 2955 ft 230 kts 182°
2026-04-24 22:19 28.61695 -81.32809 2959 ft 223 kts 181°
2026-04-24 22:19 28.60206 -81.32848 2932 ft 208 kts 180°
2026-04-24 22:19 28.58777 -81.32840 2760 ft 198 kts 180°
2026-04-24 22:19 28.57462 -81.32828 2569 ft 182 kts 180°
2026-04-24 22:20 28.56227 -81.32814 2321 ft 174 kts 180°
2026-04-24 22:20 28.55039 -81.32801 2073 ft 167 kts 180°
2026-04-24 22:20 28.53899 -81.32789 1840 ft 160 kts 180°
2026-04-24 22:20 28.52809 -81.32777 1660 ft 147 kts 180°
2026-04-24 22:21 28.51826 -81.32766 1468 ft 139 kts 180°
2026-04-24 22:21 28.50861 -81.32756 1279 ft 139 kts 180°
2026-04-24 22:21 28.49896 -81.32747 1088 ft 139 kts 180°
2026-04-24 22:21 28.48931 -81.32744 903 ft 138 kts 179°
2026-04-24 22:22 28.47977 -81.32735 725 ft 137 kts 180°
2026-04-24 22:22 28.47026 -81.32721 553 ft 136 kts 179°
2026-04-24 22:22 28.46080 -81.32714 408 ft 136 kts 181°
2026-04-24 22:22 28.45134 -81.32703 223 ft 136 kts 180°
2026-04-24 22:23 28.44201 -81.32694 120 ft 127 kts 180°
2026-04-24 22:23 28.43414 -81.32683 106 ft 98 kts 180°
2026-04-24 22:23 28.42904 -81.32678 108 ft 49 kts 178°
2026-04-24 22:23 28.42732 -81.32659 104 ft 9 kts 166°
2026-04-24 22:24 28.42593 -81.32560 104 ft 28 kts 119°
2026-04-24 22:24 28.42495 -81.32365 107 ft 25 kts 119°
2026-04-24 22:24 28.42476 -81.32326 108 ft 0 kts 120°
2026-04-24 22:24 28.42434 -81.32254 110 ft 21 kts 122°
2026-04-24 22:25 28.42350 -81.32092 110 ft 26 kts 108°
2026-04-24 22:25 28.42402 -81.31990 109 ft 17 kts
2026-04-24 22:25 28.42529 -81.31990 109 ft 19 kts 357°
2026-04-24 22:25 28.42660 -81.31990 109 ft 19 kts 14°
2026-04-24 22:26 28.42707 -81.31894 108 ft 6 kts 85°
2026-04-24 22:26 28.42728 -81.31850 106 ft 7 kts 34°
2026-04-24 22:26 28.42784 -81.31836 105 ft 9 kts
2026-04-24 22:26 28.42855 -81.31836 103 ft 11 kts 359°
2026-04-24 22:27 28.42941 -81.31838 103 ft 14 kts 359°
2026-04-24 22:27 28.43045 -81.31841 103 ft 16 kts 358°
2026-04-24 22:27 28.43164 -81.31843 103 ft 18 kts
2026-04-24 22:27 28.43265 -81.31759 101 ft 20 kts 54°
2026-04-24 22:28 28.43387 -81.31694 102 ft 18 kts 12°
2026-04-24 22:28 28.43487 -81.31668 101 ft 12 kts 15°
2026-04-24 22:28 28.43535 -81.31620 101 ft 8 kts 82°
2026-04-24 22:28 28.43539 -81.31568 101 ft 8 kts 86°
2026-04-24 22:29 28.43540 -81.31539 100 ft 0 kts 89°